{"data":{"norad_id":44057,"epoch":"2026-09-20T04:09:40.021632Z","epoch_age_seconds":42634,"freshness":"FRESH","line1":"1 44057U 19010A   26263.17337988  .00000015  00000+0  55715-5 0  9999","line2":"2 44057  87.9147 209.9231 0002489  82.7853 277.3561 13.16594043364066","mean_motion":13.16594043,"eccentricity":0.0002489,"inclination_deg":87.9147,"raan_deg":209.9231,"arg_perigee_deg":82.7853,"mean_anomaly_deg":277.3561,"bstar":5.5715e-6,"rev_number":36406,"period_min":109.37312132438,"perigee_km":1195.8718478827,"apogee_km":1199.6431281588,"semimajor_km":7575.8944880208,"source":"CELESTRAK","updated_at":"2026-09-20T09:00:44.543199Z"}}